OPS 4682 DEB, 38393

Orbit data source: Space-Track

OPS 4682 DEB, 38393 is space debris in LEO originally from a launch on Sat, 03 Apr 1965 UTC launched from the Air Force Western Test Range (AFWTR). Debris objects in space refer to the collection of defunct objects orbiting the Earth. Examples of debris include non-operational satellites, rocket bodies, and fragments generated from explosions, collisions, or faulty payload assembly.

Loading next visibility...
Identifier
38393, 1965-027CW
Orbit
LEO
Country
Flag of USUS
Related business
Manufacturer
Unknown
Mission
Spacecraft
Bus & Motor
Unknown
Mass
Unknown
Launch date (UTC)
1965-04-03 (61 years ago)
Launch vehicle
Unknown
Launch site
Air Force Western Test Range (AFWTR)
Object type
Payload
Rocket body
Debris
Shape & HBR
Unknown shape, 0.1 m
Radar Cross Section
Small (<0.1 m²)

Expand to show TLE details & history
Last TLE update: 2 days ago

TLE from 2 days ago
0 OPS 4682 DEB
1 38393U 65027CW  25300.47087873  .00000013  00000-0  20834-4 0  9995
2 38393  90.2534  11.4083 0023478 266.2692  93.5744 12.98319793595626
Epoch: 2025-10-27T11:18Z
TLE epoch observation values (Epoch: 2025-10-27T11:18:03.922Z)
Latitude
-0.00005°
Longitude
165.81971°
Altitude
1,272.719 km
Speed
7.219 km/s
True Right ascension
00h 45m 37s
True Declination
0° 00' 00"
Sunlit
Object was in full shadow at epoch
Visualization orbit readout
Latitude
Unknown
Longitude
Unknown
Altitude
Unknown
Speed
Unknown
Apparent Right ascension
Unknown
Apparent Declination
Unknown
Sunlit
N/A
Visualization observer readout
Local Sidereal Time
21:14:17
Azimuth
Unknown
Elevation
Unknown
Doppler factor
Unknown
Orbital elements
Apogee altitude
1,283.753 km
Perigee altitude
1,247.86 km
Semi-major axis
7,643.943 km
Eccentricity
0.00235
Inclination
90.2534°
RAAN
11.4083°
Arg. of periapsis
266.2692°
True anomaly
93.84286°
Mean anomaly
93.5744°
Eccentric anomaly
93.70864°
Mean motion
3.24763 °/min
Orbital period
110.85 mins
BSTAR
0.000020834
Loading maneuver chart data...
Computing Atmospheric mass density...
Loading historical data...
Loading historical data...
Loading historical data...
Loading historical data...
Loading historical data...
Loading historical data...
Loading historical data...

Documentation

Showing up to 5 results
|